NIMBUS 2 DEB, 28620

Orbit data source: Space-Track

NIMBUS 2 DEB, 28620 is space debris in SSO originally from a launch on Sun, 15 May 1966 UTC launched from the Air Force Western Test Range (AFWTR). Debris objects in space refer to the collection of defunct objects orbiting the Earth. Examples of debris include non-operational satellites, rocket bodies, and fragments generated from explosions, collisions, or faulty payload assembly.

Loading next visibility...
Identifier
28620, 1966-040AK
Orbit
SSO
Country
Flag of USUS
Related business
Manufacturer
Unknown
Mission
Spacecraft
Bus & Motor
Unknown
Mass
Unknown
Launch date (UTC)
1966-05-15 (60 years ago)
Launch vehicle
Unknown
Launch site
Air Force Western Test Range (AFWTR)
Object type
Payload
Rocket body
Debris
Shape & HBR
Unknown shape, 0.1 m
Radar Cross Section
Small (<0.1 m²)

Expand to show TLE details & history
Last TLE update: 1 day ago

TLE from 1 day ago
0 NIMBUS 2 DEB
1 28620U 66040AK  25345.95597519  .00003149  00000-0  48748-2 0  9993
2 28620 100.4389 243.2617 0039586 113.9372 310.2972 13.51621163 25917
Epoch: 2025-12-11T22:56Z
TLE epoch observation values (Epoch: 2025-12-11T22:56:36.256Z)
Latitude
62.10723°
Longitude
157.94647°
Altitude
1,057.839 km
Speed
7.338 km/s
True Right ascension
14h 52m 00s
True Declination
61° 58' 14"
Sunlit
Object was in daylight at epoch
Visualization orbit readout
Latitude
Unknown
Longitude
Unknown
Altitude
Unknown
Speed
Unknown
Apparent Right ascension
Unknown
Apparent Declination
Unknown
Sunlit
N/A
Visualization observer readout
Local Sidereal Time
08:18:34
Azimuth
Unknown
Elevation
Unknown
Doppler factor
Unknown
Orbital elements
Apogee altitude
1,093.097 km
Perigee altitude
1,034.179 km
Semi-major axis
7,441.775 km
Eccentricity
0.00396
Inclination
100.4389°
RAAN
243.2617°
Arg. of periapsis
113.9372°
True anomaly
309.95011°
Mean anomaly
310.2972°
Eccentric anomaly
310.12377°
Mean motion
3.38087 °/min
Orbital period
106.48 mins
BSTAR
0.0048748
Loading maneuver chart data...
Computing Atmospheric mass density...
Loading historical data...
Loading historical data...
Loading historical data...
Loading historical data...
Loading historical data...
Loading historical data...
Loading historical data...

Documentation

Showing up to 5 results
|